This is the latest recevied weather packets stored in our database for station/object KY0TEQ-13. If no packets are shown the sender has not sent any weather packets the latest 10 day(s).
| Time | Temp. | Humidity | Pressure | Rain* | Wind** | Luminosity | Snow |
|---|---|---|---|---|---|---|---|
| 1777904887 | 10.56° C | 58% | 1301.1 hPa | 0 mm | - | 134 W/m² | - |
| 1777904583 | 10.56° C | 57% | 1301.1 hPa | 0 mm | - | 127 W/m² | - |
| 1777904280 | 10.56° C | 58% | 1301.3 hPa | 0 mm | - | 132 W/m² | - |
| 1777903978 | 10° C | 58% | 1301.2 hPa | 0 mm | - | 127 W/m² | - |
| 1777903674 | 9.44° C | 62% | 1301 hPa | 0 mm | - | 113 W/m² | - |
| 1777903370 | 9.44° C | 61% | 1301.2 hPa | 0 mm | - | 113 W/m² | - |
| 1777903067 | 8.89° C | 62% | 1301.1 hPa | 0 mm | - | 102 W/m² | - |
| 1777902763 | 8.89° C | 65% | 1301 hPa | 0 mm | - | 95 W/m² | - |
| 1777902461 | 8.89° C | 64% | 1301 hPa | 0 mm | - | 83 W/m² | - |
| 1777902157 | 8.89° C | 63% | 1301 hPa | 0 mm | - | 70 W/m² | - |
| 1777901856 | 8.33° C | 62% | 1301 hPa | 0 mm | - | 68 W/m² | - |
| 1777901553 | 7.78° C | 64% | 1300.9 hPa | 0 mm | - | 58 W/m² | - |
| 1777901250 | 7.78° C | 66% | 1300.9 hPa | 0 mm | - | 51 W/m² | - |
| 1777900947 | 7.22° C | 67% | 1300.9 hPa | 0 mm | - | 45 W/m² | - |
| 1777900645 | 7.22° C | 67% | 1300.7 hPa | 0 mm | - | 41 W/m² | - |
| 1777900342 | 7.78° C | 66% | 1300.7 hPa | 0 mm | - | 36 W/m² | - |
| 1777900039 | 7.22° C | 66% | 1300.7 hPa | 0 mm | - | 31 W/m² | - |
| 1777899734 | 6.67° C | 68% | 1300.7 hPa | 0 mm | - | 27 W/m² | - |
| 1777899432 | 6.67° C | 69% | 1300.7 hPa | 0 mm | - | 22 W/m² | - |
| 1777899130 | 6.67° C | 68% | 1300.7 hPa | 0 mm | - | 18 W/m² | - |
| 1777898827 | 7.22° C | 67% | 1300.5 hPa | 0 mm | - | 13 W/m² | - |
| 1777898525 | 7.22° C | 66% | 1300.5 hPa | 0 mm | - | 9 W/m² | - |
| 1777898222 | 7.22° C | 66% | 1300.1 hPa | 0 mm | - | 8 W/m² | - |
| 1777897919 | 7.22° C | 67% | 1299.9 hPa | 0 mm | - | 5 W/m² | - |
| 1777897615 | 7.22° C | 65% | 1300.1 hPa | 0 mm | - | 3 W/m² | - |
* Rain latest hour (hover to see other rain measurements)
** Current wind speed in m/s (hover to see current wind gust speed)